Starlink 5573

operational
NORAD ID: 55750 Int'l Des: 2023-028 Owner: SPXS Country: US Constellation: starlink
LEOCIRCULAR

Starlink 5573について

説明を読み込み中...

リアルタイム位置

3D地球を読み込み中...

次回通過

高度履歴

Altitude vs Time

uPlot chart will show altitude changes over time

軌道要素

1 55750U 23028K 25354.20434296 .00000469 00000-0 47073-4 0 9990
2 55750 70.0000 84.8829 0003132 270.4798 89.6002 14.98330948154134
Epoch: Dec 20, 2025 • Age: 9 hours

現在のステータス

高度 584.0 km
速度 7.57 km/s
衛星直下点 -36.50°S, 123.78°E
打ち上げ日 Mar 3, 2023
運用期間 2.7 years
タイプ internet

技術仕様

分類 Payload
質量 305.00 kg
乾燥質量 290.00 kg
総質量 305.00 kg
長さ 0.20 m
直径 2.80 m
スパン 9.00 m
形状 Box + pan
製造者 SPXS
バスタイプ Starlink
フェーズステータス In Orbit
所有者/国 SPXS/US

大規模コンステレーション

Loading constellations...